Regional Weather Roundup
Issued by NWS Cleveland, OH

Home | Current Version | Previous Version | Graphics & Text | Print | Product List | Glossary On
Versions: 1 2 3 4 5 6 7 8 9 10 11 12 13 14 15 16 17 18 19 20 21 22 23 24 25 26 27 28 29 30 31 32 33 34 35 36 37 38 39 40 41 42 43 44 45 46 47 48 49 50
000
ASUS41 KCLE 120602
RWRCLE
OHIO REGIONAL WEATHER ROUNDUP
NATIONAL WEATHER SERVICE CLEVELAND, OH
200 AM EDT SAT JUL 12 2014

NOTE: "FAIR" INDICATES FEW OR NO CLOUDS BELOW 12,000 FEET WITH NO
SIGNIFICANT WEATHER AND/OR OBSTRUCTIONS TO VISIBILITY.

OHZ001>008-015>018-024>027-034-035-043-044-120700-
   NORTHWEST OHIO

CITY           SKY/WX    TMP DP  RH WIND       PRES   REMARKS
DEFIANCE       MOCLDY    69  61  75 CALM      30.17F
FINDLAY        CLOUDY    70  62  76 CALM      30.17F
TOLEDO EXPRESS CLOUDY    67  59  75 CALM      30.17F
TOLEDO EXEC    MOCLDY    68  58  70 SE3       30.18F
LIMA           CLOUDY    71  64  78 CALM      30.18F
$$

OHZ009>014-019>023-028>033-038-089-120700-
   NORTHEAST OHIO

CITY           SKY/WX    TMP DP  RH WIND       PRES   REMARKS
CLE-HOPKINS    PTCLDY    64  56  75 SE5       30.20F
CLE-LAKEFRONT  PTCLDY    70  54  56 SE6       30.17F
CUY CO. ARPT   NOT AVBL
LORAIN-ELYRIA  MOCLDY    66  58  75 CALM      30.20F
ASHTABULA      PTCLDY    60  57  89 CALM      30.20F
AKRON-CANTON   MOCLDY    66  56  70 NE3       30.21S
WOOSTER        MOCLDY    62  59  90 CALM      30.21F
MANSFIELD      PTCLDY    66  59  78 CALM      30.21F
YOUNGSTOWN     MOCLDY    62  57  83 CALM      30.21S
$$

OHZ042-051>053-060>062-070>072-077>081-120700-
  SOUTHWEST OHIO

CITY           SKY/WX    TMP DP  RH WIND       PRES   REMARKS
CINC-COVINGTON PTCLDY    67  57  70 CALM      30.19S
CINC-LUNKEN    PTCLDY    64  61  90 CALM      30.18F
HAMILTON       PTCLDY    63  62  97 CALM      30.19S
DAYTON         MOCLDY    70  60  70 CALM      30.20F
WRIGHT-PAT AFB MOCLDY    67  61  82 CALM      30.19F
DAYTON GENERAL PTCLDY    67  62  84 E3        30.18F
WILMINGTON     CLEAR     63  60  90 CALM      30.20S
$$

OHZ036-037-039>041-045>050-054>059-063>069-073>076-082>088-120700-
  CENTRAL AND SOUTHEAST OHIO

CITY           SKY/WX    TMP DP  RH WIND       PRES   REMARKS
COLUMBUS       PTCLDY    69  59  70 CALM      30.18F
OSU AIRPORT    PTCLDY    68  59  73 CALM      30.19F
BOLTON FIELD   CLEAR     64  60  86 CALM      30.19F
RICKENBACK AFB CLEAR     68  57  68 CALM      30.18S
NEWARK         PTCLDY    62  60  93 CALM      30.19F
MARION         MOCLDY    66  60  81 CALM      30.19F
LANCASTER      CLEAR     61  57  87 CALM      30.19F
ZANESVILLE     PTCLDY    63  60  90 CALM      30.19F
NEW PHILLY     MOCLDY    63  62  97 CALM      30.21S FOG
$$


USA.gov is the U.S. government's official web portal to all federal, state and local government web resources and services.